Home   Weather   Valdivia   Past weeks

Flag for Chile Past Weather in Valdivia, Chile — Yesterday and Last 2 Weeks

Now
50 °F

Overcast.


Feels Like: 48 °F
Forecast: 51 / 64 °F
Wind: 5 mph from Southwest

Location: Puerto Montt Airport

Current Time: Dec 6, 2016 at 7:30:45 am

Latest Report: Dec 6, 2016 at 7:00 am


Visibility: N/A

Pressure: 30.15 "Hg

Humidity: 94%

Dew Point: 48 °F

Location of ValdiviaLocation

Past Weather in Valdivia — Graph

°F

Valdivia Temperature Yesterday

Maximum temperature yesterday: 57 °F (at 12:00 pm)
Minimum temperature yesterday: 45 °F (at 4:00 am)
Average temperature yesterday: 52 °F

High & Low Weather Summary for the Past Weeks

 TemperatureHumidityPressure
High79 °F (Nov 21, 4:00 pm)100% (Nov 23, 5:00 am)30.33 "Hg (Nov 23, 5:00 am)
Low41 °F (Dec 3, 7:00 am)25% (Nov 22, 4:00 pm)29.65 "Hg (Dec 4, 3:00 pm)
Average58 °F77%30.01 "Hg
* Reported Nov 21 6:00 am — Dec 6 6:00 am, Valdivia, Weather by CustomWeather, © 2016

Note: Actual official high and low records may vary slightly from our data, if they occured in-between our weather recording intervals... More about our weather records

Advertising

Valdivia Weather History for the Previous 24 Hours

Scroll right to see more
 ConditionsComfort  
Time TempWeatherWind HumidityBarometerVisibility
6:00 am
Tue, Dec 6
50 °FMostly cloudy.5 mph94%30.12 "HgN/A
5:00 am50 °FLow clouds.5 mph94%30.12 "HgN/A
4:00 am50 °FOvercast.6 mph100%30.15 "HgN/A
3:00 am50 °FOvercast.6 mph100%30.15 "HgN/A
2:00 am52 °FFog.6 mph94%30.15 "Hg3 mi
1:00 am52 °FFog.6 mph94%30.15 "Hg3 mi
12:00 am52 °FFog.6 mph94%30.15 "Hg3 mi
11:00 pm
Mon, Dec 5
52 °FFog.6 mph94%30.15 "Hg3 mi
10:00 pm52 °FOvercast.6 mph94%30.15 "HgN/A
9:00 pm52 °FOvercast.6 mph94%30.15 "HgN/A
8:00 pm54 °FScattered showers. Overcast.7 mph94%30.15 "Hg4 mi
7:00 pm54 °FSprinkles. More clouds than sun.9 mph88%30.12 "Hg3 mi
6:00 pm54 °FSprinkles. More clouds than sun.8 mph94%30.12 "Hg3 mi
5:00 pm55 °FScattered showers. Mostly cloudy.7 mph88%30.12 "Hg4 mi
4:00 pm57 °FSprinkles. Overcast.7 mph82%30.09 "Hg2 mi
3:00 pm57 °FSprinkles. More clouds than sun.10 mph77%30.09 "Hg3 mi
2:00 pm55 °FSprinkles. More clouds than sun.8 mph82%30.09 "Hg4 mi
1:00 pm57 °FMostly cloudy.9 mph72%30.07 "HgN/A
12:00 pm57 °FMostly cloudy.9 mph67%30.07 "HgN/A
11:00 am55 °FPartly sunny.9 mph72%30.07 "HgN/A
10:00 am55 °FPartly sunny.9 mph77%30.04 "HgN/A
9:00 am52 °FPartly sunny.6 mph82%30.04 "HgN/A
8:00 am48 °FPartly sunny.5 mph94%30.04 "HgN/A
7:00 am46 °FPartly sunny.6 mph93%30.01 "HgN/A
Weather by CustomWeather, © 2016

See weather overviewHow to use our weather pages